sat.trackr.live / text

‹ back to catalog

STARLINK-36457

NORAD 67349 · 2026-003R

PAYLOAD ACTIVE UNKNOWN

§ Identity

Operator
Country
US
Launch date
2026-01-09
Launch site
AFETR
Launch vehicle
Mass (kg)
RCS (m²)

Purposes: comms

External: N2YO · Heavens-Above · Gunter

§ Orbital elements

Epoch: 2026-05-25T01:21:20.527776Z

Period
94.27 min
Inclination
43.0004°
Eccentricity
0.0001170
Mean motion
15.27580708 rev/d
Perigee alt
482.2 km
Apogee alt
483.8 km
Semi-major
6,861.2 km
B*
6.5045e-4
RAAN
155.7495°
Arg perigee
261.5703°
Mean anomaly
98.5016°
Rev number
2,050

§ Raw data

STARLINK-364571 67349U 26003R   26145.05648759  .00017680  00000+0  65045-3 0  99962 67349  43.0004 155.7495 0001170 261.5703  98.5016 15.27580708 20500

JSON: /api/v1/satellites/67349 · /tle

For live sub-satellite position, see the globe view (requires WebGL).

§ Visibility from observer

Set your observer location to see the next 7 days of passes ≥ 10°. The values pass through the URL so the page stays shareable.

No JS? Fill the form by hand. The geolocation button needs JavaScript.